7 * 24
多渠道服务支持
ONEWEB-0617是英国一网公司(OneWeb)的低轨宽带通信卫星,于2023年1月10日发射入轨,是OneWeb第一代低轨星座组网卫星的成员。该卫星归属已与欧洲通信卫星公司合并的英国OneWeb,旨在为全球偏远地区及基础设施薄弱区域提供高性价比互联网接入服务,补充全球网络覆盖缺口,和星链形成商业竞争,支撑OneWeb低轨宽带星座的全球服务能力构建。
英国
(GB)
| 数据来源 | 国际轨道数据 |
| 星历时间: | 2026-09-11T14:46:37+0800 20小时前 查看轨道信息 |
| 半长轴: | 7595.816km |
| 偏心率: | 0.0001708 |
| 轨道倾角: | 87.897° |
| 近地点辐角 | 114.017° |
| 升交点赤经 | 3.952° |
| 平近点角 | 246.114° |
| 近地点: | 1216.381km |
| 远地点: | 1218.977km |
| 周期: | 109.805分钟 |
| 每日圈数: | 13.11418 |